IRIDIUM 33 DEB, 38017

Orbit data source: Space-Track

IRIDIUM 33 DEB, 38017 is space debris in LEO originally from a launch on Sun, 14 Sep 1997 UTC launched from the Tyuratam Missile And Space Complex (TTMTR). The debris from Iridium 33, an American commercial communications satellite, has been tracked extensively since its accidental collision with the defunct Russian satellite Cosmos 2251 in 2009. This event, occurring at high speed in low Earth orbit (LEO), generated thousands of pieces of space debris, significantly increasing the risk of further collisions. The Iridium 33 debris cloud has impacted space traffic management and orbital debris mitigation strategies, making it a subject of ongoing study in space situational awareness.

Loading next visibility...
Identifier
38017, 1997-051YD
Orbit
LEO
Country
Flag of USUS
Related business
Manufacturer
Unknown
Mission
Spacecraft
Bus & Motor
Unknown
Mass
Unknown
Launch date (UTC)
1997-09-14 (28 years ago)
Launch vehicle
Unknown
Launch site
Tyuratam Missile And Space Complex (TTMTR)
Object type
Payload
Rocket body
Debris
Shape & HBR
Unknown shape, 0.1 m
Radar Cross Section
Small (<0.1 m²)

Expand to show TLE details & history
Last TLE update: 9 hours ago

TLE from 9 hours ago
0 IRIDIUM 33 DEB
1 38017U 97051YD  26063.62172730  .00012854  00000-0  30165-2 0  9993
2 38017  86.3373 130.5370 0091890 189.4474 170.5009 14.51809027625893
Epoch: 2026-03-04T14:55Z
TLE epoch observation values (Epoch: 2026-03-04T14:55:17.238Z)
Latitude
0.00005°
Longitude
104.33138°
Altitude
787.18 km
Speed
7.426 km/s
True Right ascension
08h 42m 08s
True Declination
0° 00' 00"
Sunlit
Object was in full shadow at epoch
Visualization orbit readout
Latitude
Unknown
Longitude
Unknown
Altitude
Unknown
Speed
Unknown
Apparent Right ascension
Unknown
Apparent Declination
Unknown
Sunlit
N/A
Visualization observer readout
Local Sidereal Time
03:43:28
Azimuth
Unknown
Elevation
Unknown
Doppler factor
Unknown
Orbital elements
Apogee altitude
781.881 km
Perigee altitude
651.492 km
Semi-major axis
7,094.824 km
Eccentricity
0.00919
Inclination
86.3373°
RAAN
130.537°
Arg. of periapsis
189.4474°
True anomaly
170.67273°
Mean anomaly
170.5009°
Eccentric anomaly
170.58701°
Mean motion
3.63187 °/min
Orbital period
99.12 mins
BSTAR
0.0030165
Loading maneuver chart data...
Computing Atmospheric mass density...
Loading historical data...
Loading historical data...
Loading historical data...
Loading historical data...
Loading historical data...
Loading historical data...
Loading historical data...

Documentation

Showing up to 5 results
|